Location: Usti nad Labem
(50.6670°N, 14.0330°E)
Time: 03:01:01
(UTC+02:00)

ISS - Visible Passes

Search period start: 27 May 2018 00:00
Search period end: 06 June 2018 00:00
Orbit: 402 x 407 km, 51.6° (Epoch: 27 May)

Date Brightness Start Highest point End Pass type
(mag) Time Alt. Az. Time Alt. Az. Time Alt. Az.
27 May -4.0 00:22:21 10° WNW 00:25:38 80° SSW 00:26:26 48° ESE visible
27 May -3.7 21:53:33 10° W 21:56:50 81° N 22:00:07 10° ENE visible
27 May -3.8 23:30:08 10° WNW 23:33:25 83° N 23:35:43 18° E visible
28 May -2.2 01:06:44 10° W 01:08:21 23° WSW 01:08:21 23° WSW visible
28 May -3.6 22:37:55 10° W 22:41:11 74° N 22:44:28 10° E visible
29 May -3.7 00:14:27 10° W 00:17:38 51° SSW 00:17:42 51° SSW visible
29 May -3.6 21:45:39 10° W 21:48:56 72° N 21:52:12 10° E visible
29 May -3.9 23:22:12 10° WNW 23:25:28 72° SSW 23:27:06 27° ESE visible
30 May -1.4 00:59:07 10° W 00:59:44 13° WSW 00:59:44 13° WSW visible
30 May -3.9 22:29:57 10° WNW 22:33:14 89° NNE 22:36:31 10° ESE visible
31 May -2.7 00:06:36 10° W 00:09:09 29° SW 00:09:09 29° SW visible
31 May -3.4 23:14:14 10° W 23:17:22 44° SSW 23:18:35 29° SSE visible
01 Jun -3.8 22:21:55 10° WNW 22:25:11 64° SSW 22:28:03 13° ESE visible
01 Jun -1.8 23:59:01 10° W 00:00:41 16° SW 00:00:41 16° SW visible
02 Jun -2.5 23:06:21 10° W 23:09:08 26° SSW 23:10:11 21° S visible
03 Jun -3.1 22:13:54 10° W 22:16:59 39° SSW 22:19:41 12° SE visible
04 Jun -1.6 22:58:53 10° WSW 23:00:44 14° SW 23:01:52 12° SSW visible
05 Jun -2.1 22:06:02 10° W 22:08:39 22° SW 22:11:15 10° SSE visible
